Location: Bacea
(45.9500°N, 22.6667°E)
Time: 16:37:38
(UTC+00:00)

Cosmos 489 Rocket - Visible Passes

Search period start: 30 November 2023 00:00
Search period end: 10 December 2023 00:00
Orbit: 953 x 982 km, 74.0° (Epoch: 30 November)

Date Brightness Start Highest point End Pass type
(mag) Time Alt. Az. Time Alt. Az. Time Alt. Az.
30 Nov 6.5 16:15:30 10° W 16:20:08 21° NW 16:24:47 10° N visible
01 Dec 6.8 16:40:58 10° WNW 16:43:58 14° NW 16:46:57 10° NNW visible
02 Dec 5.8 15:13:47 10° SW 15:19:30 36° WNW 15:25:12 10° N visible
03 Dec 6.4 15:38:15 10° WSW 15:43:04 23° NW 15:47:54 10° N visible
04 Dec 6.7 16:03:33 10° WNW 16:06:52 15° NW 16:10:11 10° N visible
07 Dec 6.7 15:26:10 10° W 15:29:46 16° NW 15:33:22 10° N visible
